| time (UTC) | temp F | wind direction | speed MPH | gust MPH | rain 1hr in | rain 24hr in | rain mn in | humidity % | barometer mb |
| 20260831121514 | 69 | 228 | 2.0 | 5.0 | 0.00 | 0.67 | 0.00 | 92 | 1014.3 |
| 20260831120013 | 68 | 206 | 2.0 | 5.0 | 0.00 | 0.67 | 0.00 | 92 | 1014.4 |
| 20260831114512 | 68 | 202 | 1.0 | 5.0 | 0.00 | 0.74 | 0.00 | 92 | 1014.3 |
| 20260831113013 | 68 | 199 | 1.0 | 3.0 | 0.00 | 0.74 | 0.00 | 93 | 1014.2 |
| 20260831111511 | 67 | 199 | 0.0 | 3.0 | 0.00 | 0.74 | 0.00 | 93 | 1014.3 |
| 20260831110011 | 67 | 198 | 1.0 | 2.0 | 0.00 | 0.74 | 0.00 | 93 | 1014.2 |
| 20260831104518 | 67 | 198 | 0.0 | 1.0 | 0.00 | 0.77 | 0.00 | 93 | 1014.6 |
| 20260831103009 | 67 | 198 | 0.0 | 2.0 | 0.00 | 0.77 | 0.00 | 92 | 1014.8 |
| 20260831101508 | 67 | 198 | 0.0 | 0.0 | 0.00 | 0.77 | 0.00 | 92 | 1015.2 |
| 20260831100008 | 67 | 198 | 0.0 | 1.0 | 0.00 | 0.77 | 0.00 | 92 | 1015.0 |
| 20260831094506 | 67 | 198 | 0.0 | 0.0 | 0.00 | 0.77 | 0.00 | 92 | 1014.9 |
| 20260831093007 | 67 | 198 | 0.0 | 1.0 | 0.00 | 0.77 | 0.00 | 92 | 1014.8 |
| 20260831091506 | 67 | 198 | 2.0 | 3.0 | 0.00 | 0.77 | 0.00 | 92 | 1014.6 |
| 20260831090106 | 68 | 198 | 1.0 | 2.0 | 0.00 | 0.77 | 0.00 | 92 | 1014.7 |
| 20260831084502 | 68 | 198 | 0.0 | 2.0 | 0.00 | 0.78 | 0.00 | 92 | 1014.7 |
| 20260831083002 | 67 | 198 | 0.0 | 1.0 | 0.00 | 0.78 | 0.00 | 92 | 1014.4 |
| 20260831081501 | 67 | 198 | 0.0 | 3.0 | 0.00 | 0.78 | 0.00 | 92 | 1014.3 |
| 20260831080106 | 68 | 198 | 0.0 | 2.0 | 0.00 | 0.78 | 0.00 | 92 | 1014.3 |
| 20260831074559 | 68 | 198 | 1.0 | 2.0 | 0.00 | 0.78 | 0.00 | 92 | 1014.3 |
| 20260831073057 | 68 | 198 | 0.0 | 2.0 | 0.00 | 0.78 | 0.00 | 92 | 1014.3 |
| 20260831071554 | 68 | 198 | 0.0 | 1.0 | 0.00 | 0.78 | 0.00 | 92 | 1014.5 |
| 20260831070105 | 68 | 198 | 0.0 | 1.0 | 0.00 | 0.78 | 0.00 | 92 | 1014.7 |
| 20260831064550 | 68 | 198 | 0.0 | 0.0 | 0.00 | 0.79 | 0.00 | 91 | 1014.9 |
| 20260831063050 | 69 | 198 | 0.0 | 1.0 | 0.00 | 0.79 | 0.00 | 91 | 1015.0 |
| 20260831061549 | 69 | 198 | 0.0 | 2.0 | 0.00 | 0.79 | 0.00 | 91 | 1015.0 |
| 20260831060048 | 69 | 198 | 0.0 | 2.0 | 0.00 | 0.79 | 0.00 | 91 | 1015.0 |
| 20260831054548 | 69 | 198 | 0.0 | 1.0 | 0.00 | 0.79 | 0.00 | 91 | 1015.1 |
| 20260831053047 | 69 | 198 | 0.0 | 1.0 | 0.00 | 0.79 | 0.00 | 90 | 1015.1 |
| 20260831051550 | 69 | 198 | 1.0 | 2.0 | 0.00 | 0.79 | 0.00 | 90 | 1015.0 |
| 20260831050042 | 70 | 198 | 1.0 | 2.0 | 0.00 | 0.79 | 0.00 | 90 | 1015.0 |
| 20260831044551 | 70 | 198 | 0.0 | 1.0 | 0.00 | 0.83 | 0.00 | 90 | 1014.9 |
| 20260831043040 | 70 | 198 | 0.0 | 1.0 | 0.00 | 0.83 | 0.00 | 90 | 1014.9 |
| 20260831041548 | 70 | 198 | 0.0 | 2.0 | 0.00 | 0.83 | 0.00 | 90 | 1014.9 |
| 20260831040036 | 70 | 198 | 0.0 | 2.0 | 0.00 | 0.83 | 0.00 | 89 | 1015.0 |
| 20260831034536 | 70 | 198 | 1.0 | 2.0 | 0.00 | 0.84 | 0.83 | 89 | 1014.9 |
| 20260831033036 | 70 | 198 | 1.0 | 4.0 | 0.00 | 0.84 | 0.83 | 89 | 1014.9 |
| 20260831031535 | 70 | 198 | 1.0 | 3.0 | 0.00 | 0.84 | 0.83 | 89 | 1014.8 |
| 20260831030037 | 70 | 199 | 1.0 | 4.0 | 0.00 | 0.84 | 0.83 | 89 | 1014.9 |
| 20260831024535 | 70 | 240 | 1.0 | 5.0 | 0.00 | 0.85 | 0.83 | 88 | 1014.6 |
| 20260831023034 | 70 | 219 | 1.0 | 3.0 | 0.00 | 0.85 | 0.83 | 88 | 1014.6 |
| 20260831021538 | 70 | 224 | 0.0 | 3.0 | 0.00 | 0.85 | 0.83 | 89 | 1014.5 |
| 20260831020032 | 69 | 157 | 0.0 | 2.0 | 0.00 | 0.85 | 0.83 | 89 | 1014.4 |
| 20260831014540 | 69 | 157 | 1.0 | 3.0 | 0.00 | 0.85 | 0.83 | 88 | 1014.2 |
| 20260831013034 | 70 | 157 | 1.0 | 3.0 | 0.00 | 0.85 | 0.83 | 88 | 1014.1 |
| 20260831011535 | 70 | 157 | 1.0 | 3.0 | 0.00 | 0.85 | 0.83 | 87 | 1014.1 |
| 20260831010030 | 71 | 157 | 2.0 | 6.0 | 0.00 | 0.85 | 0.83 | 87 | 1014.1 |
| 20260831004530 | 71 | 157 | 4.0 | 7.0 | 0.00 | 0.85 | 0.83 | 87 | 1014.0 |
| 20260831003030 | 71 | 156 | 3.0 | 7.0 | 0.00 | 0.85 | 0.83 | 87 | 1013.9 |
| 20260831001528 | 71 | 155 | 4.0 | 8.0 | 0.00 | 0.85 | 0.83 | 87 | 1014.0 |
| 20260831000038 | 71 | 155 | 3.0 | 7.0 | 0.00 | 0.85 | 0.83 | 87 | 1014.1 |
| 20260830234526 | 72 | 156 | 4.0 | 7.0 | 0.00 | 0.85 | 0.83 | 86 | 1014.2 |
| 20260830233034 | 72 | 157 | 3.0 | 7.0 | 0.00 | 0.85 | 0.83 | 86 | 1014.2 |
| 20260830231530 | 73 | 157 | 3.0 | 6.0 | 0.00 | 0.85 | 0.83 | 85 | 1014.1 |
| 20260830230026 | 73 | 152 | 4.0 | 7.0 | 0.00 | 0.85 | 0.83 | 84 | 1014.0 |
| 20260830224524 | 74 | 157 | 2.0 | 9.0 | 0.00 | 0.85 | 0.83 | 83 | 1014.1 |
| 20260830223022 | 74 | 155 | 2.0 | 7.0 | 0.00 | 0.85 | 0.83 | 84 | 1014.3 |
| 20260830221519 | 74 | 186 | 1.0 | 4.0 | 0.00 | 0.85 | 0.83 | 85 | 1014.6 |
| 20260830220020 | 74 | 189 | 1.0 | 4.0 | 0.00 | 0.85 | 0.83 | 85 | 1014.5 |
| 20260830214518 | 74 | 151 | 1.0 | 5.0 | 0.00 | 0.85 | 0.83 | 84 | 1014.5 |
| 20260830213020 | 74 | 141 | 1.0 | 6.0 | 0.00 | 0.85 | 0.83 | 85 | 1014.6 |
| 20260830211520 | 74 | 165 | 2.0 | 5.0 | 0.00 | 0.85 | 0.83 | 85 | 1014.8 |
| 20260830210026 | 74 | 159 | 2.0 | 7.0 | 0.00 | 0.85 | 0.83 | 85 | 1014.8 |
| 20260830204516 | 73 | 163 | 1.0 | 4.0 | 0.00 | 0.85 | 0.83 | 86 | 1014.8 |
| 20260830203014 | 73 | 159 | 2.0 | 6.0 | 0.00 | 0.85 | 0.83 | 87 | 1014.5 |
| 20260830201509 | 73 | 155 | 1.0 | 5.0 | 0.00 | 0.85 | 0.83 | 89 | 1014.6 |
| 20260830200005 | 72 | 144 | 3.0 | 6.0 | 0.00 | 0.85 | 0.83 | 91 | 1014.4 |
| 20260830194604 | 71 | 154 | 3.0 | 8.0 | 0.00 | 0.85 | 0.83 | 91 | 1014.7 |
| 20260830193057 | 71 | 155 | 2.0 | 5.0 | 0.00 | 0.85 | 0.83 | 92 | 1014.9 |
| 20260830191553 | 70 | 155 | 1.0 | 6.0 | 0.00 | 0.85 | 0.83 | 93 | 1015.1 |
| 20260830190051 | 69 | 156 | 1.0 | 3.0 | 0.00 | 0.85 | 0.83 | 93 | 1015.2 |
| 20260830184549 | 69 | 156 | 2.0 | 6.0 | 0.00 | 0.85 | 0.83 | 93 | 1015.4 |
| 20260830183047 | 68 | 171 | 2.0 | 4.0 | 0.00 | 0.85 | 0.83 | 93 | 1015.6 |
| 20260830181547 | 68 | 188 | 0.0 | 3.0 | 0.00 | 0.85 | 0.83 | 94 | 1015.5 |
| 20260830180049 | 68 | 193 | 1.0 | 4.0 | 0.00 | 0.85 | 0.83 | 94 | 1015.4 |
| 20260830174545 | 68 | 160 | 1.0 | 6.0 | 0.00 | 0.85 | 0.83 | 94 | 1015.4 |
| 20260830173042 | 67 | 164 | 1.0 | 5.0 | 0.01 | 0.85 | 0.83 | 94 | 1015.4 |
| 20260830171540 | 67 | 154 | 1.0 | 3.0 | 0.03 | 0.85 | 0.83 | 94 | 1015.5 |
| 20260830170038 | 66 | 146 | 3.0 | 5.0 | 0.20 | 0.85 | 0.83 | 94 | 1015.7 |
| 20260830164555 | 65 | 151 | 2.0 | 5.0 | 0.23 | 0.85 | 0.83 | 94 | 1016.2 |
| 20260830163037 | 65 | 151 | 1.0 | 2.0 | 0.23 | 0.84 | 0.82 | 94 | 1016.1 |
| 20260830161535 | 65 | 151 | 2.0 | 5.0 | 0.22 | 0.81 | 0.79 | 94 | 1016.1 |
| 20260830160034 | 65 | 196 | 1.0 | 6.0 | 0.09 | 0.65 | 0.63 | 94 | 1016.0 |
| 20260830154533 | 65 | 175 | 1.0 | 3.0 | 0.10 | 0.62 | 0.60 | 94 | 1016.1 |
| 20260830153034 | 65 | 159 | 1.0 | 5.0 | 0.16 | 0.61 | 0.59 | 94 | 1016.4 |
| 20260830151531 | 65 | 183 | 1.0 | 4.0 | 0.19 | 0.59 | 0.56 | 94 | 1016.6 |
| 20260830150030 | 65 | 186 | 0.0 | 3.0 | 0.20 | 0.55 | 0.53 | 93 | 1017.0 |
| 20260830144529 | 65 | 165 | 1.0 | 5.0 | 0.24 | 0.52 | 0.50 | 93 | 1016.8 |
| 20260830143033 | 65 | 134 | 1.0 | 3.0 | 0.20 | 0.45 | 0.43 | 93 | 1017.1 |
| 20260830141537 | 65 | 223 | 1.0 | 4.0 | 0.17 | 0.40 | 0.38 | 93 | 1017.5 |
| 20260830140027 | 65 | 187 | 1.0 | 6.0 | 0.13 | 0.35 | 0.33 | 93 | 1017.3 |
| 20260830134536 | 65 | 219 | 2.0 | 7.0 | 0.09 | 0.28 | 0.26 | 93 | 1017.4 |
| 20260830133025 | 65 | 244 | 1.0 | 7.0 | 0.07 | 0.25 | 0.23 | 93 | 1017.2 |
| 20260830131524 | 65 | 233 | 0.0 | 9.0 | 0.05 | 0.23 | 0.21 | 93 | 1017.3 |
| 20260830130026 | 65 | 194 | 1.0 | 3.0 | 0.04 | 0.22 | 0.20 | 93 | 1017.3 |
| 20260830124523 | 64 | 208 | 0.0 | 3.0 | 0.04 | 0.19 | 0.17 | 93 | 1017.7 |
| 20260830123023 | 64 | 240 | 0.0 | 2.0 | 0.04 | 0.18 | 0.16 | 93 | 1017.3 |